DW9012 Weather Reports


time (UTC)temp
C
wind
direction
speed
KPH
gust
KPH
rain 1hr
cm
rain 24hr
cm
rain mn
cm
humidity
%
barometer
mb
20260508100043 5 30 11.3 20.9 0.00 0.05 0.00 78 1000.3
20260508094602 5 22 6.4 19.3 0.00 0.15 0.00 80 1000.1
20260508093039 5 36 9.7 16.1 0.00 0.15 0.00 81 1000.0
20260508091541 5 34 4.8 9.7 0.00 0.15 0.00 81 999.8
20260508090034 5 342 4.8 11.3 0.00 0.15 0.00 82 999.7
20260508084532 5 31 4.8 9.7 0.00 0.28 0.00 82 999.6
20260508083031 5 19 8.0 16.1 0.00 0.28 0.00 82 999.4
20260508081555 5 36 8.0 14.5 0.00 0.28 0.00 82 999.3
20260508080033 5 36 4.8 16.1 0.00 0.28 0.00 82 999.3
20260508074526 5 315 4.8 17.7 0.00 0.33 0.00 83 999.2
20260508073026 5 326 4.8 12.9 0.00 0.33 0.00 83 999.1
20260508071537 5 302 6.4 14.5 0.00 0.33 0.00 83 999.0
20260508070024 5 328 8.0 16.1 0.00 0.33 0.00 84 999.0
20260508064521 5 351 4.8 14.5 0.00 0.41 0.00 84 999.0
20260508063030 4 332 4.8 9.7 0.00 0.41 0.00 84 998.9
20260508061518 4 32 4.8 14.5 0.00 0.41 0.00 84 998.9
20260508060017 5 20 3.2 11.3 0.00 0.41 0.00 84 998.8
20260508054515 5 10 6.4 11.3 0.00 0.46 0.00 83 998.8
20260508053013 5 319 4.8 12.9 0.00 0.46 0.00 83 998.8
20260508051512 5 355 4.8 9.7 0.00 0.46 0.00 83 998.7
20260508050010 5 322 4.8 11.3 0.00 0.46 0.00 83 998.7
20260508044509 5 355 4.8 9.7 0.00 0.46 0.00 83 998.6
20260508043010 5 331 4.8 11.3 0.00 0.46 0.00 82 998.6
20260508041505 5 292 4.8 11.3 0.00 0.46 0.00 82 998.7
20260508040004 5 292 3.2 9.7 0.00 0.46 0.00 82 998.6
20260508034501 5 309 1.6 6.4 0.00 0.46 0.46 81 998.5
20260508033002 5 321 3.2 8.0 0.00 0.46 0.46 81 998.5
20260508031502 5 341 1.6 11.3 0.00 0.46 0.46 81 998.4
20260508030005 6 306 4.8 11.3 0.00 0.46 0.46 81 998.4
20260508024600 6 309 4.8 11.3 0.00 0.48 0.46 80 998.4
20260508023100 6 28 4.8 12.9 0.00 0.48 0.46 81 998.4
20260508021559 6 304 4.8 11.3 0.00 0.48 0.46 81 998.5
20260508020105 6 308 6.4 12.9 0.00 0.48 0.46 80 998.5
20260508014559 7 289 6.4 14.5 0.00 0.56 0.46 78 998.5
20260508013058 7 300 3.2 11.3 0.00 0.56 0.46 75 998.5
20260508011557 7 282 4.8 11.3 0.00 0.56 0.46 71 998.5
20260508010057 8 294 4.8 16.1 0.00 0.56 0.46 67 998.5
20260508004602 8 296 3.2 8.0 0.00 0.61 0.46 63 998.6
20260508003058 9 335 6.4 12.9 0.00 0.61 0.46 62 998.4
20260508001556 9 23 4.8 17.7 0.00 0.61 0.46 58 998.3
20260508000055 10 322 4.8 19.3 0.00 0.61 0.46 55 998.1
20260507234554 10 214 8.0 17.7 0.00 0.61 0.46 56 997.9
20260507233054 10 308 8.0 17.7 0.00 0.61 0.46 58 997.9
20260507231556 10 274 11.3 24.1 0.00 0.61 0.46 55 997.7
20260507230053 10 301 6.4 24.1 0.00 0.61 0.46 60 997.5
20260507224557 10 267 3.2 14.5 0.00 0.61 0.46 65 997.3
20260507223051 10 313 4.8 12.9 0.00 0.61 0.46 63 997.0
20260507221551 10 291 8.0 19.3 0.00 0.61 0.46 59 996.9
20260507220049 10 268 3.2 11.3 0.00 0.61 0.46 67 996.8
20260507214601 10 203 6.4 11.3 0.00 0.61 0.46 65 996.8
20260507213048 10 221 6.4 11.3 0.00 0.61 0.46 65 996.6
20260507211550 9 231 1.6 6.4 0.00 0.61 0.46 69 996.6
20260507210052 9 205 4.8 9.7 0.00 0.61 0.46 73 996.6
20260507204546 10 244 3.2 9.7 0.00 0.61 0.46 73 996.5
20260507203102 10 244 4.8 9.7 0.00 0.61 0.46 71 996.4
20260507201555 11 204 4.8 9.7 0.00 0.61 0.46 67 996.4
20260507194544 11 228 8.0 20.9 0.00 0.61 0.46 70 996.4
20260507193047 10 273 14.5 20.9 0.00 0.61 0.46 74 996.4
20260507191543 9 269 11.3 29.0 0.00 0.61 0.46 78 996.5
20260507190042 9 273 17.7 32.2 0.00 0.61 0.46 79 996.5
20260507184547 9 271 17.7 32.2 0.00 0.61 0.46 78 996.5
20260507183046 10 279 17.7 30.6 0.00 0.61 0.46 76 996.6
20260507181539 10 230 16.1 29.0 0.00 0.61 0.46 74 996.6
20260507180042 10 232 11.3 22.5 0.00 0.61 0.46 75 996.7
20260507174538 10 238 6.4 24.1 0.00 0.61 0.46 76 996.9
20260507173038 10 248 14.5 32.2 0.00 0.61 0.46 75 997.1
20260507171536 10 238 9.7 25.7 0.00 0.61 0.46 76 996.9
20260507170037 11 251 17.7 30.6 0.00 0.61 0.46 75 996.9
20260507164541 11 295 19.3 27.4 0.00 0.61 0.46 73 996.8
20260507163033 11 214 14.5 24.1 0.00 0.61 0.46 74 997.0
20260507161533 11 259 9.7 22.5 0.00 0.61 0.46 69 997.1
20260507160030 12 278 6.4 14.5 0.00 0.61 0.46 67 997.4
20260507154527 12 300 11.3 17.7 0.00 0.61 0.46 66 997.5
20260507153022 11 305 4.8 12.9 0.00 0.61 0.46 69 997.7
20260507151522 11 319 6.4 14.5 0.00 0.61 0.46 70 997.7
20260507150023 10 298 6.4 12.9 0.00 0.61 0.46 75 997.7
20260507144522 9 313 8.0 14.5 0.00 0.61 0.46 78 997.9
20260507143012 9 290 4.8 16.1 0.00 0.61 0.46 77 997.8
20260507141507 8 304 9.7 20.9 0.00 0.61 0.46 80 997.8
20260507140004 7 302 8.0 14.5 0.00 0.61 0.46 83 997.9
20260507134501 7 271 8.0 17.7 0.00 0.61 0.46 83 998.1
20260507133132 7 346 11.3 17.7 0.00 0.61 0.46 85 998.2
20260507131556 7 327 11.3 17.7 0.00 0.61 0.46 85 998.3
20260507130106 7 299 9.7 16.1 0.00 0.61 0.46 88 998.6
20260507124548 6 12 3.2 11.3 0.00 0.61 0.46 91 998.6
20260507123045 6 35 6.4 12.9 0.00 0.61 0.46 91 999.0
20260507121547 6 350 6.4 14.5 0.00 0.61 0.46 92 998.9
20260507120052 5 343 8.0 16.1 0.00 0.61 0.46 93 999.3
20260507114603 5 5 4.8 12.9 0.03 0.61 0.46 94 999.4
20260507113035 5 15 6.4 14.5 0.03 0.61 0.46 95 999.4
20260507111535 5 331 8.0 12.9 0.05 0.61 0.46 95 999.7
20260507110031 5 319 3.2 8.0 0.05 0.61 0.46 95 999.8
20260507104529 5 348 0.0 6.4 0.05 0.61 0.43 95 999.9
20260507103027 5 17 3.2 6.4 0.05 0.61 0.43 95 1000.0
20260507101528 5 360 3.2 8.0 0.08 0.58 0.43 95 1000.1